Location: Czekanka
(50.4925°N, 19.2643°E)
Time: 02:27:21
(UTC+00:00)

SL-16 R/B - Visible Passes

Search period start: 18 September 2024 00:00
Search period end: 28 September 2024 00:00
Orbit: 841 x 847 km, 71.0° (Epoch: 17 September)

Date Brightness Start Highest point End Pass type
(mag) Time Alt. Az. Time Alt. Az. Time Alt. Az.
18 Sep 5.2 00:56:18 10° N 00:58:32 12° NNE 01:00:46 10° NE visible
18 Sep 4.0 02:39:22 10° NNW 02:44:31 34° NE 02:49:37 10° ESE visible
18 Sep 3.2 17:37:10 10° SSE 17:41:37 24° ESE 17:46:03 10° NE visible
18 Sep 2.5 19:19:34 10° SW 19:25:13 68° WNW 19:30:54 10° NNE visible
18 Sep 4.7 21:06:28 10° W 21:10:26 19° NW 21:14:25 10° N visible
19 Sep 5.2 00:42:00 10° N 00:44:08 12° NNE 00:46:16 10° NE visible
19 Sep 4.0 02:25:02 10° NNW 02:30:09 33° NE 02:35:13 10° ESE visible
19 Sep 3.2 17:22:56 10° SSE 17:27:18 23° ESE 17:31:39 10° NE visible
19 Sep 2.5 19:05:13 10° SW 19:10:52 70° WNW 19:16:34 10° NNE visible
19 Sep 4.7 20:52:01 10° W 20:56:03 19° NW 21:00:06 10° N visible
20 Sep 5.2 00:27:42 10° N 00:29:45 12° NNE 00:31:47 10° NE visible
20 Sep 4.0 02:10:43 10° NNW 02:15:47 32° NE 02:20:49 10° ESE visible
20 Sep 3.3 17:08:42 10° SSE 17:12:58 22° ESE 17:17:15 10° NE visible
20 Sep 2.4 18:50:52 10° SW 18:56:32 72° WNW 19:02:13 10° NNE visible
20 Sep 4.6 20:37:35 10° W 20:41:40 20° NW 20:45:46 10° N visible
21 Sep 5.2 00:13:24 10° N 00:15:21 12° NNE 00:17:17 10° NE visible
21 Sep 4.0 01:56:24 10° NNW 02:01:25 31° NE 02:06:25 10° ESE visible
21 Sep 2.2 03:40:20 10° NW 03:45:54 60° WSW 03:51:27 10° SSE visible
21 Sep 2.4 18:36:31 10° SW 18:42:11 74° WNW 18:47:53 10° NNE visible
21 Sep 4.6 20:23:10 10° W 20:27:18 20° NW 20:31:27 10° NNE visible
21 Sep 5.3 23:59:06 10° N 00:00:57 11° NNE 00:02:48 10° NE visible
22 Sep 4.0 01:42:03 10° NNW 01:47:03 30° NE 01:52:01 10° ESE visible
22 Sep 2.2 03:25:58 10° NW 03:31:34 63° WSW 03:37:07 10° SSE visible
22 Sep 2.4 18:22:10 10° SW 18:27:50 76° WNW 18:33:32 10° NNE visible
22 Sep 4.6 20:08:44 10° W 20:12:55 21° NW 20:17:07 10° NNE visible
22 Sep 5.2 23:44:48 10° N 23:46:33 11° NNE 23:48:18 10° NE visible
23 Sep 4.0 01:27:44 10° NNW 01:32:41 30° NE 01:37:36 10° ESE visible
23 Sep 2.2 03:11:37 10° NW 03:17:14 65° WSW 03:22:49 10° SSE visible
23 Sep 2.3 18:07:48 10° SSW 18:13:29 79° WNW 18:19:12 10° NNE visible
23 Sep 4.6 19:54:17 10° W 19:58:32 21° NW 20:02:47 10° NNE visible
23 Sep 5.2 23:30:30 10° N 23:32:09 11° NNE 23:33:47 10° NE visible
24 Sep 4.1 01:13:24 10° NNW 01:18:19 29° NE 01:23:12 10° ESE visible
24 Sep 2.1 02:57:16 10° NNW 03:02:54 67° WSW 03:08:28 10° SSE visible
24 Sep 2.3 17:53:27 10° SSW 17:59:08 81° WNW 18:04:51 10° NNE visible
24 Sep 4.6 19:39:52 10° W 19:44:09 22° NW 19:48:28 10° NNE visible
24 Sep 5.2 23:16:13 10° N 23:17:45 11° NNE 23:19:17 10° NNE visible
25 Sep 4.1 00:59:04 10° NNW 01:03:56 28° NE 01:08:47 10° ESE visible
25 Sep 2.1 02:42:54 10° NNW 02:48:33 69° WSW 02:54:09 10° SSE visible
25 Sep 2.3 17:39:06 10° SSW 17:44:47 83° WNW 17:50:30 10° NNE visible
25 Sep 4.5 19:25:25 10° W 19:29:46 22° NW 19:34:08 10° NNE visible
25 Sep 5.2 23:01:56 10° N 23:03:21 11° NNE 23:04:45 10° NNE visible
26 Sep 4.1 00:44:44 10° NNW 00:49:34 28° NE 00:54:22 10° E visible
26 Sep 2.1 02:28:33 10° NNW 02:34:12 72° WSW 02:39:49 10° SSE visible
26 Sep 2.3 17:24:45 10° SSW 17:30:26 86° WNW 17:36:09 10° NNE visible
26 Sep 4.5 19:10:59 10° W 19:15:23 22° NW 19:19:48 10° NNE visible
26 Sep 5.2 22:47:39 10° N 22:48:56 11° NNE 22:50:13 10° NNE visible
27 Sep 4.1 00:30:24 10° NNW 00:35:11 27° NE 00:39:56 10° E visible
27 Sep 2.0 02:14:12 10° NNW 02:19:52 74° WSW 02:25:29 10° SSE visible
27 Sep 3.7 04:00:26 10° WNW 04:02:57 13° W 04:05:28 10° WSW visible
27 Sep 2.3 17:10:24 10° SSW 17:16:05 88° WNW 17:21:48 10° NNE visible
27 Sep 4.5 18:56:34 10° W 19:01:00 23° NW 19:05:28 10° NNE visible
27 Sep 5.2 22:33:23 10° N 22:34:32 11° NNE 22:35:41 10° NNE visible
